Orr, MN

6:40 AM CST on November 15, 2019 (GMT -0600)
Orr Regional

Weather History for KORB - June, 2019

Change the Weather History Date:

Friday, June 7, 2019

  Actual Average Record
Temperature  
Mean Temperature 72 °F -  
Max Temperature 89 °F 67 °F 89 °F (2019)
Min Temperature 55 °F 45 °F 37 °F (2013)
Cooling Degree Days 7    
Growing Degree Days 22 (Base 50)    
Moisture  
Dew Point 53 °F    
Average Humidity 54    
Maximum Humidity 94    
Minimum Humidity 24    
Precipitation  
Precipitation 0.00 in - - ()
Sea Level Pressure  
Sea Level Pressure 29.84 in    
Wind  
Wind Speed 4 mph (SSE)    
Max Wind Speed 15 mph    
Max Gust Speed 23 mph    
Visibility 10 miles    
Events      
Averages and records for this station are not official NWS values.
T = Trace of Precipitation, MM = Missing Value Source: NWS Daily Summary

Daily Weather History Graph

Daily Weather History Graph

Search for Another Location

Airport or City:

Astronomy

Jun. 07, 2019 Rise Set
Actual Time 5:13 AM CDT 9:07 PM CDT
Civil Twilight 4:32 AM CDT 9:48 PM CDT
Nautical Twilight 3:36 AM CDT 10:44 PM CDT
Astronomical Twilight 2:09 AM CDT 12:12 AM CDT
Moon 9:36 AM CDT (6/7) 12:21 AM CDT (6/7)
Length of Visible Light 17h 16m
Length of Day
15h 54m
Waxing Crescent, 22% of the Moon is Illuminated
Jun 7
Waxing Crescent
Jun 10
First Quarter
Jun 17
Full
Jun 25
Last Quarter
Jul 2
New

Hourly Weather History & Observations

Time (CDT) Temp. Heat Index Dew Point Humidity Pressure Visibility Wind Dir Wind Speed Gust Speed Precip Events Conditions
12:13 AM 62.6 °F - 53.6 °F 72% 29.86 in 10.0 mi Calm Calm - N/A   Clear
12:33 AM 57.2 °F - 53.6 °F 88% 29.86 in 10.0 mi Calm Calm - N/A   Clear
12:34 AM 57.2 °F - 53.6 °F 88% 29.86 in 10.0 mi Calm Calm - N/A   Clear
12:53 AM 57.2 °F - 53.6 °F 88% 29.86 in 10.0 mi Calm Calm - N/A   Clear
12:54 AM 57.2 °F - 53.6 °F 88% 29.86 in 10.0 mi Calm Calm - N/A   Clear
1:17 AM 55.4 °F - 51.8 °F 88% 29.86 in 10.0 mi Calm Calm - N/A   Clear
1:34 AM 55.4 °F - 53.6 °F 94% 29.86 in 10.0 mi Calm Calm - N/A   Clear
1:54 AM 57.2 °F - 53.6 °F 88% 29.86 in 10.0 mi Calm Calm - N/A   Clear
2:13 AM 59.0 °F - 53.6 °F 82% 29.85 in 10.0 mi Calm Calm - N/A   Clear
2:14 AM 59.0 °F - 53.6 °F 82% 29.85 in 10.0 mi Calm Calm - N/A   Clear
2:33 AM 57.2 °F - 53.6 °F 88% 29.86 in 10.0 mi Calm Calm - N/A   Clear
2:37 AM 57.2 °F - 53.6 °F 88% 29.86 in 10.0 mi Calm Calm - N/A   Clear
2:55 AM 57.2 °F - 53.6 °F 88% 29.86 in 10.0 mi Calm Calm - N/A   Clear
3:14 AM 57.2 °F - 53.6 °F 88% 29.86 in 10.0 mi Calm Calm - N/A   Clear
3:33 AM 57.2 °F - 53.6 °F 88% 29.86 in 10.0 mi Calm Calm - N/A   Clear
3:34 AM 57.2 °F - 53.6 °F 88% 29.86 in 10.0 mi Calm Calm - N/A   Clear
3:53 AM 57.2 °F - 51.8 °F 82% 29.86 in 10.0 mi ESE 3.5 mph - N/A   Clear
3:54 AM 57.2 °F - 51.8 °F 82% 29.86 in 10.0 mi ESE 3.5 mph - N/A   Clear
4:16 AM 57.2 °F - 51.8 °F 82% 29.86 in 10.0 mi Calm Calm - N/A   Clear
4:34 AM 55.4 °F - 51.8 °F 88% 29.86 in 10.0 mi Calm Calm - N/A   Clear
4:53 AM 55.4 °F - 51.8 °F 88% 29.86 in 10.0 mi SE 3.5 mph - N/A   Clear
4:54 AM 55.4 °F - 51.8 °F 88% 29.86 in 10.0 mi SE 3.5 mph - N/A   Clear
5:13 AM 55.4 °F - 51.8 °F 88% 29.86 in 10.0 mi ESE 3.5 mph - N/A   Clear
5:14 AM 55.4 °F - 51.8 °F 88% 29.86 in 10.0 mi ESE 3.5 mph - N/A   Clear
5:33 AM 55.4 °F - 51.8 °F 88% 29.87 in 10.0 mi Calm Calm - N/A   Clear
5:37 AM 57.2 °F - 51.8 °F 82% 29.87 in 10.0 mi ESE 3.5 mph - N/A   Clear
5:56 AM 55.4 °F - 51.8 °F 88% 29.87 in 10.0 mi ESE 3.5 mph - N/A   Clear
6:13 AM 57.2 °F - 51.8 °F 82% 29.88 in 10.0 mi Calm Calm - N/A   Clear
6:33 AM 57.2 °F - 51.8 °F 82% 29.88 in 10.0 mi ESE 3.5 mph - N/A   Clear
6:34 AM 57.2 °F - 51.8 °F 82% 29.88 in 10.0 mi ESE 3.5 mph - N/A   Clear
6:53 AM 57.2 °F - 51.8 °F 82% 29.88 in 10.0 mi SE 4.6 mph - N/A   Clear
7:16 AM 60.8 °F - 51.8 °F 72% 29.87 in 10.0 mi SSE 3.5 mph - N/A   Clear
7:35 AM 62.6 °F - 51.8 °F 68% 29.87 in 10.0 mi SSE 3.5 mph - N/A   Clear
7:54 AM 64.4 °F - 53.6 °F 68% 29.87 in 10.0 mi SE 3.5 mph - N/A   Clear
8:13 AM 64.4 °F - 53.6 °F 68% 29.87 in 10.0 mi SE 4.6 mph - N/A   Clear
8:14 AM 64.4 °F - 53.6 °F 68% 29.87 in 10.0 mi SE 4.6 mph - N/A   Clear
8:33 AM 66.2 °F - 53.6 °F 64% 29.87 in 10.0 mi SSE 6.9 mph - N/A   Clear
8:55 AM 69.8 °F - 53.6 °F 56% 29.87 in 10.0 mi SSE 6.9 mph - N/A   Clear
9:13 AM 71.6 °F - 53.6 °F 53% 29.86 in 10.0 mi South 6.9 mph - N/A   Clear
9:33 AM 73.4 °F - 53.6 °F 50% 29.86 in 10.0 mi SSE 8.1 mph - N/A   Clear
9:53 AM 75.2 °F - 53.6 °F 47% 29.86 in 10.0 mi SSE 6.9 mph - N/A   Clear
9:54 AM 75.2 °F - 53.6 °F 47% 29.86 in 10.0 mi South 6.9 mph - N/A   Clear
10:17 AM 77.0 °F - 55.4 °F 47% 29.85 in 10.0 mi SSE 8.1 mph - N/A   Clear
10:34 AM 78.8 °F - 53.6 °F 42% 29.85 in 10.0 mi South 6.9 mph - N/A   Clear
10:54 AM 80.6 °F 80.5 °F 55.4 °F 42% 29.85 in 10.0 mi South 5.8 mph - N/A   Clear
11:13 AM 78.8 °F - 53.6 °F 42% 29.85 in 10.0 mi SSE 6.9 mph - N/A   Clear
11:14 AM 80.6 °F 80.5 °F 55.4 °F 42% 29.85 in 10.0 mi SSE 6.9 mph - N/A   Clear
11:33 AM 82.4 °F 81.4 °F 53.6 °F 37% 29.85 in 10.0 mi SSE 6.9 mph - N/A   Clear
11:37 AM 82.4 °F 81.4 °F 53.6 °F 37% 29.85 in 10.0 mi South 5.8 mph - N/A   Clear
11:55 AM 82.4 °F 81.4 °F 53.6 °F 37% 29.85 in 10.0 mi SE 8.1 mph - N/A   Clear
12:14 PM 84.2 °F 82.8 °F 53.6 °F 35% 29.85 in 10.0 mi South 5.8 mph - N/A   Clear
12:33 PM 84.2 °F 82.8 °F 53.6 °F 35% 29.84 in 10.0 mi South 8.1 mph - N/A   Clear
12:34 PM 84.2 °F 82.8 °F 53.6 °F 35% 29.84 in 10.0 mi SSE 5.8 mph - N/A   Clear
12:53 PM 86.0 °F 84.2 °F 53.6 °F 33% 29.84 in 10.0 mi SSE 10.4 mph 16.1 mph N/A   Clear
12:54 PM 86.0 °F 84.2 °F 53.6 °F 33% 29.84 in 10.0 mi SSE 11.5 mph 16.1 mph N/A   Clear
1:16 PM 87.8 °F 85.7 °F 53.6 °F 31% 29.83 in 10.0 mi South 8.1 mph - N/A   Clear
1:34 PM 87.8 °F - 51.8 °F 29% 29.83 in 10.0 mi South 15.0 mph 18.4 mph N/A   Clear
1:53 PM 89.6 °F - 51.8 °F 27% 29.82 in 10.0 mi South 4.6 mph - N/A   Clear
1:54 PM 89.6 °F 87.3 °F 53.6 °F 29% 29.82 in 10.0 mi South 8.1 mph - N/A   Clear
2:13 PM 89.6 °F - 51.8 °F 27% 29.82 in 10.0 mi South 10.4 mph - N/A   Clear
2:14 PM 87.8 °F - 51.8 °F 29% 29.82 in 10.0 mi SSE 11.5 mph - N/A   Clear
2:33 PM 89.6 °F - 48.2 °F 24% 29.82 in 10.0 mi South 11.5 mph 19.6 mph N/A   Scattered Clouds
2:37 PM 89.6 °F - 48.2 °F 24% 29.82 in 10.0 mi South 10.4 mph 18.4 mph N/A   Scattered Clouds
2:56 PM 89.6 °F - 50.0 °F 26% 29.81 in 10.0 mi SSE 9.2 mph 18.4 mph N/A   Scattered Clouds
3:13 PM 87.8 °F - 50.0 °F 27% 29.81 in 10.0 mi South 9.2 mph 17.3 mph N/A   Scattered Clouds
3:33 PM 87.8 °F - 48.2 °F 25% 29.81 in 10.0 mi SSW 9.2 mph 17.3 mph N/A   Scattered Clouds
3:34 PM 87.8 °F - 48.2 °F 25% 29.81 in 10.0 mi SSW 8.1 mph 17.3 mph N/A   Scattered Clouds
3:53 PM 89.6 °F - 50.0 °F 26% 29.81 in 10.0 mi SSW 6.9 mph - N/A   Clear
3:54 PM 89.6 °F - 48.2 °F 24% 29.81 in 10.0 mi SSW 9.2 mph - N/A   Clear
4:16 PM 89.6 °F - 48.2 °F 24% 29.80 in 10.0 mi South 10.4 mph 16.1 mph N/A   Clear
4:35 PM 89.6 °F - 50.0 °F 26% 29.80 in 10.0 mi South 10.4 mph 18.4 mph N/A   Scattered Clouds
4:54 PM 87.8 °F - 50.0 °F 27% 29.80 in 10.0 mi South 9.2 mph 16.1 mph N/A   Scattered Clouds
5:13 PM 87.8 °F - 48.2 °F 25% 29.80 in 10.0 mi SSW 4.6 mph 16.1 mph N/A   Scattered Clouds
5:14 PM 89.6 °F - 48.2 °F 24% 29.80 in 10.0 mi South 6.9 mph 16.1 mph N/A   Scattered Clouds
5:33 PM 87.8 °F - 48.2 °F 25% 29.80 in 10.0 mi South 10.4 mph 19.6 mph N/A   Clear
5:55 PM 87.8 °F - 48.2 °F 25% 29.80 in 10.0 mi South 9.2 mph 23.0 mph N/A   Clear
6:13 PM 87.8 °F - 50.0 °F 27% 29.80 in 10.0 mi South 11.5 mph 18.4 mph N/A   Scattered Clouds
6:33 PM 87.8 °F - 51.8 °F 29% 29.80 in 10.0 mi SSE 11.5 mph 19.6 mph N/A   Scattered Clouds
6:53 PM 86.0 °F - 50.0 °F 29% 29.80 in 10.0 mi South 12.7 mph 18.4 mph N/A   Scattered Clouds
6:54 PM 86.0 °F - 50.0 °F 29% 29.80 in 10.0 mi South 11.5 mph 18.4 mph N/A   Scattered Clouds
7:34 PM 84.2 °F 82.8 °F 53.6 °F 35% 29.81 in 10.0 mi South 9.2 mph 16.1 mph N/A   Clear
7:54 PM 82.4 °F 81.4 °F 53.6 °F 37% 29.81 in 10.0 mi South 9.2 mph 16.1 mph N/A   Clear
8:13 PM 80.6 °F 80.3 °F 53.6 °F 39% 29.81 in 10.0 mi South 8.1 mph - N/A   Clear
8:14 PM 80.6 °F 80.3 °F 53.6 °F 39% 29.81 in 10.0 mi South 6.9 mph - N/A   Clear
8:33 PM 78.8 °F - 57.2 °F 47% 29.82 in 10.0 mi SSE 4.6 mph - N/A   Clear
8:37 PM 78.8 °F - 55.4 °F 44% 29.82 in 10.0 mi SSE 6.9 mph - N/A   Clear
8:55 PM 78.8 °F - 57.2 °F 47% 29.82 in 10.0 mi SSE 4.6 mph - N/A   Clear
9:14 PM 75.2 °F - 57.2 °F 53% 29.82 in 10.0 mi SSE 9.2 mph - N/A   Clear
9:33 PM 75.2 °F - 55.4 °F 50% 29.83 in 10.0 mi SSE 6.9 mph - N/A   Clear
9:34 PM 75.2 °F - 55.4 °F 50% 29.83 in 10.0 mi SSE 9.2 mph - N/A   Clear
9:53 PM 75.2 °F - 55.4 °F 50% 29.84 in 10.0 mi SSE 8.1 mph 16.1 mph N/A   Clear
9:54 PM 75.2 °F - 55.4 °F 50% 29.84 in 10.0 mi SSE 8.1 mph 16.1 mph N/A   Clear
10:16 PM 75.2 °F - 55.4 °F 50% 29.84 in 10.0 mi SSE 8.1 mph - N/A   Clear
10:34 PM 73.4 °F - 55.4 °F 53% 29.84 in 10.0 mi SSE 8.1 mph - N/A   Clear
10:53 PM 73.4 °F - 53.6 °F 50% 29.85 in 10.0 mi SSE 8.1 mph 17.3 mph N/A   Clear
11:13 PM 73.4 °F - 53.6 °F 50% 29.85 in 10.0 mi SSE 10.4 mph 16.1 mph N/A   Clear
11:14 PM 73.4 °F - 53.6 °F 50% 29.85 in 10.0 mi SSE 8.1 mph 16.1 mph N/A   Clear
11:33 PM 71.6 °F - 53.6 °F 53% 29.86 in 10.0 mi SSE 5.8 mph - N/A   Clear
11:37 PM 71.6 °F - 53.6 °F 53% 29.86 in 10.0 mi SSE 6.9 mph - N/A   Clear
11:56 PM 69.8 °F - 53.6 °F 56% 29.86 in 10.0 mi SSE 9.2 mph - N/A   Clear